Voltar ao catálogo

STARLINK-5221

AtivoComunicaçõesVLEO
NORAD 54091·PAYLOAD·🇺🇸 United States

Lançado Oct 20, 2022 de Cape Canaveral Space Force Station

Loading…

Próximas Passagens (próximas 24 horas)

TLE

AtualizadoSource: CelesTrak SupGP

Época: Sep 15, 2026, 03:10 UTC

1 54091C 22136AS  26258.13243056  .00574140  00000+0  35453-1 0  2589
2 54091  53.1592 202.6475 0001280  84.9495 116.2310 15.09112423    15

Acompanhe STARLINK-5221 em tempo real com AllMySat

Download on the App Store